Location: LDNL
(36.4545°S, 141.6685°E)
Time: 04:16:44
(UTC+10:00)

BUGSAT 1 - Visible Passes

Search period start: 18 May 2022 00:00
Search period end: 28 May 2022 00:00
Orbit: 556 x 599 km, 98.1° (Epoch: 17 May)

Date Brightness Start Highest point End Pass type
(mag) Time Alt. Az. Time Alt. Az. Time Alt. Az.
18 May ? 05:39:26 10° N 05:43:26 56° W 05:43:27 56° W visible
18 May ? 18:58:14 10° SSW 19:01:47 26° WSW 19:05:17 10° NW visible
19 May ? 04:11:15 10° E 04:11:20 10° E 04:11:20 10° E visible
19 May ? 05:43:38 10° N 05:47:35 49° W 05:47:37 49° W visible
19 May ? 19:02:30 10° SSW 19:05:55 23° WSW 19:09:17 10° WNW visible
20 May ? 04:14:58 10° E 04:15:29 11° E 04:15:29 11° E visible
20 May ? 05:47:51 10° N 05:51:45 44° W 05:51:46 44° W visible
20 May ? 19:06:48 10° SSW 19:10:02 21° WSW 19:13:14 10° WNW visible
21 May ? 04:18:45 10° E 04:19:38 13° E 04:19:38 13° E visible
21 May ? 05:52:05 10° NNW 05:55:56 39° W 05:55:56 39° W visible
21 May ? 19:11:06 10° SSW 19:14:10 19° WSW 19:17:11 10° WNW visible
22 May ? 04:22:36 10° ENE 04:23:48 14° E 04:23:48 14° E visible
22 May ? 05:56:20 10° NNW 06:00:05 35° W 06:00:05 35° W visible
22 May ? 19:15:26 10° SSW 19:18:17 18° WSW 19:21:05 10° WNW visible
23 May ? 04:26:29 10° ENE 04:27:57 16° E 04:27:57 16° E visible
23 May ? 06:00:35 10° NNW 06:04:14 32° W 06:04:14 32° W visible
23 May ? 19:19:47 10° SSW 19:22:23 16° WSW 19:24:58 10° WNW visible
24 May ? 04:30:23 10° ENE 04:32:07 17° E 04:32:07 17° E visible
24 May ? 06:04:51 10° NNW 06:08:23 29° W 06:08:23 29° W visible
24 May ? 19:24:10 10° SSW 19:26:30 14° WSW 19:28:47 10° W visible
25 May ? 04:34:19 10° ENE 04:36:16 19° E 04:36:16 19° E visible
25 May ? 06:09:07 10° NNW 06:12:33 26° W 06:12:33 26° W visible
25 May ? 17:51:42 10° SSE 17:55:51 49° E 17:59:56 10° N visible
25 May ? 19:28:37 10° SW 19:30:35 13° WSW 19:32:34 10° W visible
26 May ? 04:38:17 10° ENE 04:40:25 21° E 04:40:25 21° E visible
26 May ? 06:13:25 10° NNW 06:16:42 23° W 06:16:42 23° W visible
26 May ? 17:55:48 10° SSE 18:00:01 55° E 18:04:07 10° N visible
26 May ? 19:33:09 10° SW 19:34:41 12° WSW 19:36:13 10° W visible
27 May ? 04:42:15 10° NE 04:44:34 23° E 04:44:34 23° E visible
27 May ? 06:17:45 10° NW 06:20:51 21° W 06:20:51 21° W visible
27 May ? 17:59:54 10° SSE 18:04:09 62° ENE 18:08:18 10° N visible
27 May ? 19:37:53 10° SW 19:38:46 11° WSW 19:39:39 10° WSW visible
